{"data":{"norad_id":59891,"epoch":"2026-09-20T23:22:17.133024Z","epoch_age_seconds":133589,"freshness":"FRESH","line1":"1 59891U 24100G   26263.97380941 -.00000204  00000+0  21177-5 0  9998","line2":"2 59891  43.0005 102.4754 0001109 268.0670  92.0055 15.27573791130922","mean_motion":15.27573791,"eccentricity":0.0001109,"inclination_deg":43.0005,"raan_deg":102.4754,"arg_perigee_deg":268.067,"mean_anomaly_deg":92.0055,"bstar":2.1177e-6,"rev_number":13092,"period_min":94.267131871733,"perigee_km":482.30678048239,"apogee_km":483.82859568221,"semimajor_km":6861.2046880823,"source":"CELESTRAK","updated_at":"2026-09-22T09:00:49.106704Z"}}